Overview Statistics Trail Chart Weather Telemetry Raw packets
 

This is the latest recevied weather packets stored in our database for station/object KB7STN. If no packets are shown the sender has not sent any weather packets the latest 10 day(s).

<< 103 104 105 106 107 108 109 >>
Time Temp. Humidity Pressure Rain* Wind** Luminosity Snow
1787924200 23.33° C 42% 1018.8 hPa 0 mm - - -
1787923900 23.33° C 43% 1018.8 hPa 0 mm - - -
1787923600 23.33° C 44% 1018.9 hPa 0 mm - - -
1787923300 23.33° C 41% 1018.7 hPa 0 mm - - -
1787923000 23.33° C 41% 1018.7 hPa 0 mm - - -
1787922700 23.33° C 40% 1018.5 hPa 0 mm - - -
1787922400 23.33° C 40% 1018.6 hPa 0 mm - - -
1787922100 23.33° C 40% 1018.7 hPa 0 mm - - -
1787921800 23.33° C 41% 1018.7 hPa 0 mm - - -
1787921500 23.33° C 42% 1018.8 hPa 0 mm - - -
1787921200 22.78° C 43% 1018.7 hPa 0 mm - - -
1787920900 22.78° C 45% 1018.5 hPa 0 mm - - -
1787920600 22.22° C 46% 1018.4 hPa 0 mm - - -
1787920300 21.67° C 47% 1018.3 hPa 0 mm - - -
1787920000 21.11° C 50% 1018.4 hPa 0 mm - - -
1787919700 21.11° C 51% 1018.3 hPa 0 mm - - -
1787919400 21.67° C 51% 1018.3 hPa 0 mm - - -
1787919100 21.67° C 50% 1018.4 hPa 0 mm - - -
1787918800 21.67° C 49% 1018.5 hPa 0 mm - - -
1787918500 21.67° C 48% 1018.3 hPa 0 mm - - -
1787918200 21.67° C 50% 1018.3 hPa 0 mm - - -
1787917900 21.67° C 49% 1017.9 hPa 0 mm - - -
1787917600 21.67° C 50% 1017.9 hPa 0 mm - - -
1787917300 21.67° C 50% 1018.4 hPa 0 mm - - -
1787917000 21.67° C 50% 1018.4 hPa 0 mm - - -

* Rain latest hour (hover to see other rain measurements)
** Current wind speed in m/s (hover to see current wind gust speed)